Year,Month,Day,Hour,Minute,Value (Times are PST for temperature in C)
2002,03,18,00,00,1.70
2002,03,18,00,01,1.70
2002,03,18,00,02,1.80
2002,03,18,00,03,1.80
2002,03,18,00,04,1.80
2002,03,18,00,05,1.80
2002,03,18,00,06,1.80
2002,03,18,00,07,1.80
2002,03,18,00,08,1.80
2002,03,18,00,09,1.80
2002,03,18,00,10,1.70
2002,03,18,00,11,1.70
2002,03,18,00,12,1.70
2002,03,18,00,13,1.60
2002,03,18,00,14,1.60
2002,03,18,00,15,1.50
2002,03,18,00,16,1.50
2002,03,18,00,17,1.40
2002,03,18,00,18,1.40
2002,03,18,00,19,1.30
2002,03,18,00,20,1.30
2002,03,18,00,21,1.30
2002,03,18,00,22,1.30
2002,03,18,00,23,1.30
2002,03,18,00,24,1.20
2002,03,18,00,25,1.20
2002,03,18,00,26,1.20
2002,03,18,00,27,1.20
2002,03,18,00,28,1.10
2002,03,18,00,29,1.10
2002,03,18,00,30,1.10
2002,03,18,00,31,1.10
2002,03,18,00,32,1.10
2002,03,18,00,33,1.10
2002,03,18,00,34,1.10
2002,03,18,00,35,1.10
2002,03,18,00,36,1.10
2002,03,18,00,37,1.10
2002,03,18,00,38,1.10
2002,03,18,00,39,1.20
2002,03,18,00,40,1.20
2002,03,18,00,41,1.20
2002,03,18,00,42,1.30
2002,03,18,00,43,1.30
2002,03,18,00,44,1.30
2002,03,18,00,45,1.30
2002,03,18,00,46,1.20
2002,03,18,00,47,1.20
2002,03,18,00,48,1.20
2002,03,18,00,49,1.10
2002,03,18,00,50,1.10
2002,03,18,00,51,1.10
2002,03,18,00,52,1.00
2002,03,18,00,53,1.00
2002,03,18,00,54,1.00
2002,03,18,00,55,1.00
2002,03,18,00,56,0.90
2002,03,18,00,57,0.90
2002,03,18,00,58,0.90
2002,03,18,00,59,0.90
2002,03,18,01,00,0.80
2002,03,18,01,01,0.80
2002,03,18,01,02,0.80
2002,03,18,01,03,0.80
2002,03,18,01,04,0.80
2002,03,18,01,05,0.80
2002,03,18,01,06,0.70
2002,03,18,01,07,0.70
2002,03,18,01,08,0.70
2002,03,18,01,09,0.70
2002,03,18,01,10,0.60
2002,03,18,01,11,0.60
2002,03,18,01,12,0.60
2002,03,18,01,13,0.60
2002,03,18,01,14,0.50
2002,03,18,01,15,0.50
2002,03,18,01,16,0.50
2002,03,18,01,17,0.50
2002,03,18,01,18,0.50
2002,03,18,01,19,0.40
2002,03,18,01,20,0.40
2002,03,18,01,21,0.40
2002,03,18,01,22,0.40
2002,03,18,01,23,0.40
2002,03,18,01,24,0.40
2002,03,18,01,25,0.40
2002,03,18,01,26,0.40
2002,03,18,01,27,0.40
2002,03,18,01,28,0.40
2002,03,18,01,29,0.40
2002,03,18,01,30,0.30
2002,03,18,01,31,0.30
2002,03,18,01,32,0.30
2002,03,18,01,33,0.30
2002,03,18,01,34,0.30
2002,03,18,01,35,0.20
2002,03,18,01,36,0.20
2002,03,18,01,37,0.20
2002,03,18,01,38,0.20
2002,03,18,01,39,0.20
2002,03,18,01,40,0.20
2002,03,18,01,41,0.20
2002,03,18,01,42,0.10
2002,03,18,01,43,0.10
2002,03,18,01,44,0.10
2002,03,18,01,45,0.10
2002,03,18,01,46,0.10
2002,03,18,01,47,0.10
2002,03,18,01,48,0.10
2002,03,18,01,49,0.10
2002,03,18,01,50,0.10
2002,03,18,01,51,0.10
2002,03,18,01,52,0.10
2002,03,18,01,53,0.10
2002,03,18,01,54,0.10
2002,03,18,01,55,0.10
2002,03,18,01,56,0.10
2002,03,18,01,57,0.10
2002,03,18,01,58,0.10
2002,03,18,01,59,0.10
2002,03,18,02,00,0.10
2002,03,18,02,01,0.10
2002,03,18,02,02,0.10
2002,03,18,02,03,0.10
2002,03,18,02,04,0.10
2002,03,18,02,05,0.10
2002,03,18,02,06,0.10
2002,03,18,02,07,0.10
2002,03,18,02,08,0.10
2002,03,18,02,09,0.10
2002,03,18,02,10,0.10
2002,03,18,02,11,0.10
2002,03,18,02,12,0.10
2002,03,18,02,13,0.10
2002,03,18,02,14,0.10
2002,03,18,02,15,0.10
2002,03,18,02,16,0.10
2002,03,18,02,17,0.10
2002,03,18,02,18,0.10
2002,03,18,02,19,0.10
2002,03,18,02,20,0.00
2002,03,18,02,21,-0.10
2002,03,18,02,22,-0.10
2002,03,18,02,23,0.00
2002,03,18,02,24,0.10
2002,03,18,02,25,0.10
2002,03,18,02,26,0.10
2002,03,18,02,27,0.10
2002,03,18,02,28,0.10
2002,03,18,02,29,0.00
2002,03,18,02,30,-0.10
2002,03,18,02,31,-0.10
2002,03,18,02,32,-0.10
2002,03,18,02,33,-0.10
2002,03,18,02,34,-0.10
2002,03,18,02,35,-0.10
2002,03,18,02,36,0.00
2002,03,18,02,37,0.10
2002,03,18,02,38,0.00
2002,03,18,02,39,0.00
2002,03,18,02,40,0.10
2002,03,18,02,41,0.10
2002,03,18,02,42,0.10
2002,03,18,02,43,0.10
2002,03,18,02,44,0.10
2002,03,18,02,45,0.10
2002,03,18,02,46,0.10
2002,03,18,02,47,0.00
2002,03,18,02,48,-0.10
2002,03,18,02,49,-0.10
2002,03,18,02,50,-0.10
2002,03,18,02,51,-0.10
2002,03,18,02,52,-0.10
2002,03,18,02,53,-0.10
2002,03,18,02,54,-0.10
2002,03,18,02,55,-0.10
2002,03,18,02,56,-0.10
2002,03,18,02,57,-0.10
2002,03,18,02,58,-0.10
2002,03,18,02,59,-0.20
2002,03,18,03,00,-0.20
2002,03,18,03,01,-0.10
2002,03,18,03,02,-0.10
2002,03,18,03,03,0.10
2002,03,18,03,04,0.10
2002,03,18,03,05,0.20
2002,03,18,03,06,0.30
2002,03,18,03,07,0.30
2002,03,18,03,08,0.40
2002,03,18,03,09,0.40
2002,03,18,03,10,0.30
2002,03,18,03,11,0.30
2002,03,18,03,12,0.30
2002,03,18,03,13,0.30
2002,03,18,03,14,0.30
2002,03,18,03,15,0.30
2002,03,18,03,16,0.30
2002,03,18,03,17,0.30
2002,03,18,03,18,0.20
2002,03,18,03,19,0.20
2002,03,18,03,20,0.20
2002,03,18,03,21,0.20
2002,03,18,03,22,0.10
2002,03,18,03,23,0.10
2002,03,18,03,24,0.10
2002,03,18,03,25,0.10
2002,03,18,03,26,0.00
2002,03,18,03,27,-0.10
2002,03,18,03,28,-0.10
2002,03,18,03,29,-0.10
2002,03,18,03,30,-0.10
2002,03,18,03,31,-0.10
2002,03,18,03,32,-0.10
2002,03,18,03,33,-0.10
2002,03,18,03,34,-0.10
2002,03,18,03,35,-0.10
2002,03,18,03,36,-0.10
2002,03,18,03,37,-0.10
2002,03,18,03,38,-0.10
2002,03,18,03,39,-0.10
2002,03,18,03,40,-0.10
2002,03,18,03,41,-0.10
2002,03,18,03,42,-0.10
2002,03,18,03,43,-0.10
2002,03,18,03,44,-0.10
2002,03,18,03,45,-0.10
2002,03,18,03,46,-0.10
2002,03,18,03,47,-0.10
2002,03,18,03,48,-0.10
2002,03,18,03,49,-0.10
2002,03,18,03,50,-0.10
2002,03,18,03,51,-0.10
2002,03,18,03,52,-0.10
2002,03,18,03,53,-0.10
2002,03,18,03,54,-0.10
2002,03,18,03,55,-0.10
2002,03,18,03,56,-0.10
2002,03,18,03,57,-0.10
2002,03,18,03,58,-0.10
2002,03,18,03,59,0.10
2002,03,18,04,00,0.10
2002,03,18,04,01,0.10
2002,03,18,04,02,0.10
2002,03,18,04,03,0.10
2002,03,18,04,04,0.10
2002,03,18,04,05,0.10
2002,03,18,04,06,0.20
2002,03,18,04,07,0.20
2002,03,18,04,08,0.20
2002,03,18,04,09,0.30
2002,03,18,04,10,0.30
2002,03,18,04,11,0.30
2002,03,18,04,12,0.30
2002,03,18,04,13,0.30
2002,03,18,04,14,0.40
2002,03,18,04,15,0.40
2002,03,18,04,16,0.30
2002,03,18,04,17,0.30
2002,03,18,04,18,0.30
2002,03,18,04,19,0.30
2002,03,18,04,20,0.30
2002,03,18,04,21,0.20
2002,03,18,04,22,0.20
2002,03,18,04,23,0.20
2002,03,18,04,24,0.20
2002,03,18,04,25,0.20
2002,03,18,04,26,0.20
2002,03,18,04,27,0.30
2002,03,18,04,28,0.30
2002,03,18,04,29,0.30
2002,03,18,04,30,0.30
2002,03,18,04,31,0.30
2002,03,18,04,32,0.40
2002,03,18,04,33,0.40
2002,03,18,04,34,0.40
2002,03,18,04,35,0.40
2002,03,18,04,36,0.40
2002,03,18,04,37,0.40
2002,03,18,04,38,0.40
2002,03,18,04,39,0.40
2002,03,18,04,40,0.40
2002,03,18,04,41,0.50
2002,03,18,04,42,0.50
2002,03,18,04,43,0.50
2002,03,18,04,44,0.50
2002,03,18,04,45,0.50
2002,03,18,04,46,0.50
2002,03,18,04,47,0.50
2002,03,18,04,48,0.60
2002,03,18,04,49,0.60
2002,03,18,04,50,0.60
2002,03,18,04,51,0.70
2002,03,18,04,52,0.70
2002,03,18,04,53,0.80
2002,03,18,04,54,0.80
2002,03,18,04,55,0.90
2002,03,18,04,56,0.90
2002,03,18,04,57,1.00
2002,03,18,04,58,1.10
2002,03,18,04,59,1.10
2002,03,18,05,00,1.10
2002,03,18,05,01,1.10
2002,03,18,05,02,1.10
2002,03,18,05,03,1.00
2002,03,18,05,04,1.00
2002,03,18,05,05,0.90
2002,03,18,05,06,0.90
2002,03,18,05,07,0.80
2002,03,18,05,08,0.80
2002,03,18,05,09,0.80
2002,03,18,05,10,0.80
2002,03,18,05,11,0.90
2002,03,18,05,12,0.90
2002,03,18,05,13,0.90
2002,03,18,05,14,0.90
2002,03,18,05,15,0.80
2002,03,18,05,16,0.80
2002,03,18,05,17,0.80
2002,03,18,05,18,0.80
2002,03,18,05,19,0.80
2002,03,18,05,20,0.80
2002,03,18,05,21,0.80
2002,03,18,05,22,0.80
2002,03,18,05,23,0.80
2002,03,18,05,24,0.70
2002,03,18,05,25,0.70
2002,03,18,05,26,0.80
2002,03,18,05,27,0.80
2002,03,18,05,28,0.80
2002,03,18,05,29,0.80
2002,03,18,05,30,0.80
2002,03,18,05,31,0.80
2002,03,18,05,32,0.90
2002,03,18,05,33,0.90
2002,03,18,05,34,0.90
2002,03,18,05,35,0.90
2002,03,18,05,36,0.90
2002,03,18,05,37,0.90
2002,03,18,05,38,0.90
2002,03,18,05,39,0.80
2002,03,18,05,40,0.80
2002,03,18,05,41,0.80
2002,03,18,05,42,0.90
2002,03,18,05,43,0.90
2002,03,18,05,44,1.00
2002,03,18,05,45,1.00
2002,03,18,05,46,1.00
2002,03,18,05,47,1.00
2002,03,18,05,48,1.10
2002,03,18,05,49,1.10
2002,03,18,05,50,1.10
2002,03,18,05,51,1.20
2002,03,18,05,52,1.20
2002,03,18,05,53,1.30
2002,03,18,05,54,1.30
2002,03,18,05,55,1.30
2002,03,18,05,56,1.30
2002,03,18,05,57,1.30
2002,03,18,05,58,1.30
2002,03,18,05,59,1.30
2002,03,18,06,00,1.30
2002,03,18,06,01,1.30
2002,03,18,06,02,1.30
2002,03,18,06,03,1.30
2002,03,18,06,04,1.30
2002,03,18,06,05,1.30
2002,03,18,06,06,1.30
2002,03,18,06,07,1.30
2002,03,18,06,08,1.30
2002,03,18,06,09,1.30
2002,03,18,06,10,1.30
2002,03,18,06,11,1.30
2002,03,18,06,12,1.30
2002,03,18,06,13,1.30
2002,03,18,06,14,1.30
2002,03,18,06,15,1.30
2002,03,18,06,16,1.30
2002,03,18,06,17,1.30
2002,03,18,06,18,1.30
2002,03,18,06,19,1.40
2002,03,18,06,20,1.40
2002,03,18,06,21,1.30
2002,03,18,06,22,1.30
2002,03,18,06,23,1.30
2002,03,18,06,24,1.40
2002,03,18,06,25,1.50
2002,03,18,06,26,1.50
2002,03,18,06,27,1.50
2002,03,18,06,28,1.50
2002,03,18,06,29,1.50
2002,03,18,06,30,1.50
2002,03,18,06,31,1.60
2002,03,18,06,32,1.60
2002,03,18,06,33,1.70
2002,03,18,06,34,1.70
2002,03,18,06,35,1.70
2002,03,18,06,36,1.70
2002,03,18,06,37,1.70
2002,03,18,06,38,1.80
2002,03,18,06,39,1.80
2002,03,18,06,40,1.90
2002,03,18,06,41,1.90
2002,03,18,06,42,1.90
2002,03,18,06,43,2.00
2002,03,18,06,44,2.00
2002,03,18,06,45,2.00
2002,03,18,06,46,2.00
2002,03,18,06,47,2.00
2002,03,18,06,48,2.00
2002,03,18,06,49,2.10
2002,03,18,06,50,2.10
2002,03,18,06,51,2.10
2002,03,18,06,52,2.10
2002,03,18,06,53,2.10
2002,03,18,06,54,2.10
2002,03,18,06,55,2.10
2002,03,18,06,56,2.10
2002,03,18,06,57,2.10
2002,03,18,06,58,2.10
2002,03,18,06,59,2.10
2002,03,18,07,00,2.10
2002,03,18,07,01,2.10
2002,03,18,07,02,2.10
2002,03,18,07,03,2.10
2002,03,18,07,04,2.10
2002,03,18,07,05,2.10
2002,03,18,07,06,2.10
2002,03,18,07,07,2.10
2002,03,18,07,08,2.10
2002,03,18,07,09,2.10
2002,03,18,07,10,2.10
2002,03,18,07,11,2.10
2002,03,18,07,12,2.10
2002,03,18,07,13,2.10
2002,03,18,07,14,2.10
2002,03,18,07,15,2.10
2002,03,18,07,16,2.10
2002,03,18,07,17,2.10
2002,03,18,07,18,2.10
2002,03,18,07,19,2.10
2002,03,18,07,20,2.10
2002,03,18,07,21,2.10
2002,03,18,07,22,2.10
2002,03,18,07,23,2.10
2002,03,18,07,24,2.10
2002,03,18,07,25,2.10
2002,03,18,07,26,2.10
2002,03,18,07,27,2.10
2002,03,18,07,28,2.10
2002,03,18,07,29,2.10
2002,03,18,07,30,2.10
2002,03,18,07,31,2.10
2002,03,18,07,32,2.10
2002,03,18,07,33,2.10
2002,03,18,07,34,2.10
2002,03,18,07,35,2.20
2002,03,18,07,36,2.20
2002,03,18,07,37,2.20
2002,03,18,07,38,2.20
2002,03,18,07,39,2.10
2002,03,18,07,40,2.10
2002,03,18,07,41,2.10
2002,03,18,07,42,2.10
2002,03,18,07,43,2.00
2002,03,18,07,44,2.00
2002,03,18,07,45,2.00
2002,03,18,07,46,2.00
2002,03,18,07,47,2.00
2002,03,18,07,48,2.10
2002,03,18,07,49,2.10
2002,03,18,07,50,2.20
2002,03,18,07,51,2.20
2002,03,18,07,52,2.20
2002,03,18,07,53,2.30
2002,03,18,07,54,2.30
2002,03,18,07,55,2.40
2002,03,18,07,56,2.40
2002,03,18,07,57,2.50
2002,03,18,07,58,2.50
2002,03,18,07,59,2.50
2002,03,18,08,00,2.50
2002,03,18,08,01,2.40
2002,03,18,08,02,2.30
2002,03,18,08,03,2.20
2002,03,18,08,04,2.20
2002,03,18,08,05,2.20
2002,03,18,08,06,2.20
2002,03,18,08,07,2.20
2002,03,18,08,08,2.20
2002,03,18,08,09,2.20
2002,03,18,08,10,2.20
2002,03,18,08,11,2.20
2002,03,18,08,12,2.20
2002,03,18,08,13,2.20
2002,03,18,08,14,2.20
2002,03,18,08,15,2.20
2002,03,18,08,16,2.10
2002,03,18,08,17,2.10
2002,03,18,08,18,2.00
2002,03,18,08,19,2.00
2002,03,18,08,20,2.00
2002,03,18,08,21,1.90
2002,03,18,08,22,1.90
2002,03,18,08,23,1.80
2002,03,18,08,24,1.80
2002,03,18,08,25,1.70
2002,03,18,08,26,1.70
2002,03,18,08,27,1.70
2002,03,18,08,28,1.70
2002,03,18,08,29,1.70
2002,03,18,08,30,1.70
2002,03,18,08,31,1.70
2002,03,18,08,32,1.70
2002,03,18,08,33,1.80
2002,03,18,08,34,1.80
2002,03,18,08,35,1.80
2002,03,18,08,36,1.80
2002,03,18,08,37,1.70
2002,03,18,08,38,1.70
2002,03,18,08,39,1.70
2002,03,18,08,40,1.70
2002,03,18,08,41,1.70
2002,03,18,08,42,1.60
2002,03,18,08,43,1.50
2002,03,18,08,44,1.50
2002,03,18,08,45,1.50
2002,03,18,08,46,1.40
2002,03,18,08,47,1.30
2002,03,18,08,48,1.30
2002,03,18,08,49,1.30
2002,03,18,08,50,1.30
2002,03,18,08,51,1.20
2002,03,18,08,52,1.20
2002,03,18,08,53,1.10
2002,03,18,08,54,1.10
2002,03,18,08,55,1.10
2002,03,18,08,56,1.10
2002,03,18,08,57,1.10
2002,03,18,08,58,1.10
2002,03,18,08,59,1.20
2002,03,18,09,00,1.20
2002,03,18,09,01,1.20
2002,03,18,09,02,1.20
2002,03,18,09,03,1.20
2002,03,18,09,04,1.30
2002,03,18,09,05,1.30
2002,03,18,09,06,1.30
2002,03,18,09,07,1.30
2002,03,18,09,08,1.30
2002,03,18,09,09,1.30
2002,03,18,09,10,1.30
2002,03,18,09,11,1.40
2002,03,18,09,12,1.40
2002,03,18,09,13,1.50
2002,03,18,09,14,1.50
2002,03,18,09,15,1.40
2002,03,18,09,16,1.40
2002,03,18,09,17,1.40
2002,03,18,09,18,1.40
2002,03,18,09,19,1.40
2002,03,18,09,20,1.40
2002,03,18,09,21,1.40
2002,03,18,09,22,1.40
2002,03,18,09,23,1.30
2002,03,18,09,24,1.30
2002,03,18,09,25,1.40
2002,03,18,09,26,1.30
2002,03,18,09,27,1.30
2002,03,18,09,28,1.40
2002,03,18,09,29,1.40
2002,03,18,09,30,1.40
2002,03,18,09,31,1.40
2002,03,18,09,32,1.40
2002,03,18,09,33,1.50
2002,03,18,09,34,1.50
2002,03,18,09,35,1.50
2002,03,18,09,36,1.60
2002,03,18,09,37,1.60
2002,03,18,09,38,1.60
2002,03,18,09,39,1.70
2002,03,18,09,40,1.70
2002,03,18,09,41,1.80
2002,03,18,09,42,1.80
2002,03,18,09,43,1.80
2002,03,18,09,44,1.90
2002,03,18,09,45,2.00
2002,03,18,09,46,2.00
2002,03,18,09,47,2.10
2002,03,18,09,48,2.10
2002,03,18,09,49,2.10
2002,03,18,09,50,2.20
2002,03,18,09,51,2.20
2002,03,18,09,52,2.20
2002,03,18,09,53,2.20
2002,03,18,09,54,2.20
2002,03,18,09,55,2.20
2002,03,18,09,56,2.30
2002,03,18,09,57,2.30
2002,03,18,09,58,2.20
2002,03,18,09,59,2.20
2002,03,18,10,00,2.20
2002,03,18,10,01,2.20
2002,03,18,10,02,2.20
2002,03,18,10,03,2.20
2002,03,18,10,04,2.20
2002,03,18,10,05,2.20
2002,03,18,10,06,2.20
2002,03,18,10,07,2.20
2002,03,18,10,08,2.20
2002,03,18,10,09,2.20
2002,03,18,10,10,2.20
2002,03,18,10,11,2.20
2002,03,18,10,12,2.20
2002,03,18,10,13,2.20
2002,03,18,10,14,2.20
2002,03,18,10,15,2.20
2002,03,18,10,16,2.20
2002,03,18,10,17,2.20
2002,03,18,10,18,2.10
2002,03,18,10,19,2.10
2002,03,18,10,20,2.20
2002,03,18,10,21,2.20
2002,03,18,10,22,2.20
2002,03,18,10,23,2.20
2002,03,18,10,24,2.20
2002,03,18,10,25,2.20
2002,03,18,10,26,2.20
2002,03,18,10,35,2.20
2002,03,18,10,36,2.20
2002,03,18,10,37,2.30
2002,03,18,10,38,2.30
2002,03,18,10,39,2.30
2002,03,18,10,40,2.30
2002,03,18,10,41,2.30
2002,03,18,10,42,2.30
2002,03,18,10,43,2.30
2002,03,18,10,44,2.30
2002,03,18,10,45,2.30
2002,03,18,10,46,2.30
2002,03,18,11,47,2.10
2002,03,18,11,48,2.10
2002,03,18,11,49,2.10
2002,03,18,11,50,2.10
2002,03,18,11,51,2.00
2002,03,18,11,52,2.00
2002,03,18,11,53,2.00
2002,03,18,11,54,2.00
2002,03,18,11,55,2.00
2002,03,18,11,56,2.00
2002,03,18,11,57,2.00
2002,03,18,11,58,2.00
2002,03,18,11,59,2.00
2002,03,18,12,00,2.00
2002,03,18,12,01,2.00
2002,03,18,12,02,2.00
2002,03,18,12,03,1.90
2002,03,18,12,04,1.90
2002,03,18,12,05,1.90
2002,03,18,12,06,1.90
2002,03,18,12,07,1.90
2002,03,18,12,08,1.90
2002,03,18,12,09,1.90
2002,03,18,12,10,1.90
2002,03,18,12,11,1.90
2002,03,18,12,12,1.90
2002,03,18,12,13,1.90
2002,03,18,12,14,2.00
2002,03,18,12,15,2.00
2002,03,18,12,16,2.00
2002,03,18,12,17,2.00
2002,03,18,12,18,1.90
2002,03,18,12,19,1.90
2002,03,18,12,20,2.00
2002,03,18,12,21,2.00
2002,03,18,12,22,2.00
2002,03,18,12,23,2.00
2002,03,18,12,24,2.00
2002,03,18,12,25,2.00
2002,03,18,12,26,2.00
2002,03,18,12,27,2.00
2002,03,18,12,28,2.00
2002,03,18,12,29,2.10
2002,03,18,12,30,2.00
2002,03,18,12,31,2.00
2002,03,18,12,32,2.00
2002,03,18,12,33,2.00
2002,03,18,12,34,2.00
2002,03,18,12,35,2.00
2002,03,18,12,36,2.00
2002,03,18,12,37,2.00
2002,03,18,12,38,2.00
2002,03,18,12,39,1.90
2002,03,18,12,40,1.90
2002,03,18,12,41,1.90
2002,03,18,12,42,1.90
2002,03,18,12,43,1.90
2002,03,18,12,44,1.80
2002,03,18,12,45,1.80
2002,03,18,12,46,1.80
2002,03,18,12,47,1.80
2002,03,18,12,48,1.80
2002,03,18,12,49,1.80
2002,03,18,12,50,1.80
2002,03,18,12,51,1.90
2002,03,18,12,52,1.90
2002,03,18,12,53,1.90
2002,03,18,12,54,1.90
2002,03,18,12,55,1.90
2002,03,18,12,56,1.90
2002,03,18,12,57,1.80
2002,03,18,12,58,1.80
2002,03,18,12,59,1.90
2002,03,18,13,00,1.90
2002,03,18,13,01,1.90
2002,03,18,13,02,1.90
2002,03,18,13,03,1.90
2002,03,18,13,04,1.90
2002,03,18,13,05,1.90
2002,03,18,13,06,1.90
2002,03,18,13,07,1.90
2002,03,18,13,08,1.90
2002,03,18,13,09,2.00
2002,03,18,13,10,2.00
2002,03,18,13,11,2.00
2002,03,18,13,12,2.00
2002,03,18,13,13,2.00
2002,03,18,13,14,2.00
2002,03,18,13,15,2.00
2002,03,18,13,16,2.10
2002,03,18,13,17,2.10
2002,03,18,13,18,2.20
2002,03,18,13,19,2.20
2002,03,18,13,20,2.20
2002,03,18,13,21,2.20
2002,03,18,13,22,2.20
2002,03,18,13,23,2.20
2002,03,18,13,24,2.20
2002,03,18,13,25,2.30
2002,03,18,13,26,2.30
2002,03,18,13,27,2.30
2002,03,18,13,28,2.20
2002,03,18,13,29,2.30
2002,03,18,13,30,2.30
2002,03,18,13,31,2.30
2002,03,18,13,32,2.30
2002,03,18,13,33,2.30
2002,03,18,13,34,2.30
2002,03,18,13,35,2.30
2002,03,18,13,36,2.30
2002,03,18,13,37,2.30
2002,03,18,13,38,2.30
2002,03,18,13,39,2.30
2002,03,18,13,40,2.30
2002,03,18,13,41,2.30
2002,03,18,13,42,2.30
2002,03,18,13,43,2.30
2002,03,18,13,44,2.40
2002,03,18,13,45,2.30
2002,03,18,13,46,2.30
2002,03,18,13,47,2.30
2002,03,18,13,48,2.40
2002,03,18,13,49,2.30
2002,03,18,13,50,2.30
2002,03,18,13,51,2.20
2002,03,18,13,52,2.20
2002,03,18,13,53,2.20
2002,03,18,13,54,2.20
2002,03,18,13,55,2.20
2002,03,18,13,56,2.30
2002,03,18,13,57,2.30
2002,03,18,13,58,2.30
2002,03,18,13,59,2.40
2002,03,18,14,00,2.30
2002,03,18,14,01,2.30
2002,03,18,14,02,2.30
2002,03,18,14,03,2.40
2002,03,18,14,04,2.40
2002,03,18,14,05,2.40
2002,03,18,14,06,2.40
2002,03,18,14,07,2.40
2002,03,18,14,08,2.50
2002,03,18,14,09,2.40
2002,03,18,14,10,2.40
2002,03,18,14,11,2.40
2002,03,18,14,12,2.50
2002,03,18,14,13,2.50
2002,03,18,14,14,2.50
2002,03,18,14,15,2.50
2002,03,18,14,16,2.50
2002,03,18,14,17,2.40
2002,03,18,14,18,2.40
2002,03,18,14,19,2.40
2002,03,18,14,20,2.40
2002,03,18,14,21,2.40
2002,03,18,14,22,2.40
2002,03,18,14,23,2.40
2002,03,18,14,24,2.40
2002,03,18,14,25,2.50
2002,03,18,14,26,2.50
2002,03,18,14,27,2.50
2002,03,18,14,28,2.60
2002,03,18,14,29,2.70
2002,03,18,14,30,2.70
2002,03,18,14,31,2.70
2002,03,18,14,32,2.70
2002,03,18,14,33,2.70
2002,03,18,14,34,2.70
2002,03,18,14,35,2.70
2002,03,18,14,36,2.70
2002,03,18,14,37,2.70
2002,03,18,14,38,2.70
2002,03,18,14,39,2.70
2002,03,18,14,40,2.70
2002,03,18,14,41,2.70
2002,03,18,14,42,2.70
2002,03,18,14,43,2.70
2002,03,18,14,44,2.80
2002,03,18,14,45,2.80
2002,03,18,14,46,2.90
2002,03,18,14,47,2.90
2002,03,18,14,48,2.90
2002,03,18,14,49,2.90
2002,03,18,14,50,3.00
2002,03,18,14,51,3.00
2002,03,18,14,52,3.10
2002,03,18,14,53,3.10
2002,03,18,14,54,3.10
2002,03,18,14,55,3.10
2002,03,18,14,56,3.10
2002,03,18,14,57,3.10
2002,03,18,14,58,3.10
2002,03,18,14,59,3.20
2002,03,18,15,00,3.10
2002,03,18,15,01,3.10
2002,03,18,15,02,3.10
2002,03,18,15,03,3.10
2002,03,18,15,04,3.10
2002,03,18,15,05,3.10
2002,03,18,15,06,3.10
2002,03,18,15,07,3.10
2002,03,18,15,08,3.20
2002,03,18,15,09,3.20
2002,03,18,15,10,3.30
2002,03,18,15,11,3.30
2002,03,18,15,12,3.30
2002,03,18,15,13,3.30
2002,03,18,15,14,3.20
2002,03,18,15,15,3.20
2002,03,18,15,16,3.20
2002,03,18,15,17,3.20
2002,03,18,15,18,3.20
2002,03,18,15,19,3.20
2002,03,18,15,20,3.30
2002,03,18,15,21,3.30
2002,03,18,15,22,3.20
2002,03,18,15,23,3.20
2002,03,18,15,24,3.20
2002,03,18,15,25,3.20
2002,03,18,15,26,3.20
2002,03,18,15,27,3.30
2002,03,18,15,28,3.30
2002,03,18,15,29,3.30
2002,03,18,15,30,3.30
2002,03,18,15,31,3.30
2002,03,18,15,32,3.30
2002,03,18,15,33,3.30
2002,03,18,15,34,3.30
2002,03,18,15,35,3.30
2002,03,18,15,36,3.30
2002,03,18,15,37,3.30
2002,03,18,15,38,3.30
2002,03,18,15,39,3.30
2002,03,18,15,40,3.30
2002,03,18,15,41,3.30
2002,03,18,15,42,3.30
2002,03,18,15,43,3.30
2002,03,18,15,44,3.30
2002,03,18,15,45,3.30
2002,03,18,15,46,3.30
2002,03,18,15,47,3.40
2002,03,18,15,48,3.40
2002,03,18,15,49,3.40
2002,03,18,15,50,3.50
2002,03,18,15,51,3.50
2002,03,18,15,52,3.50
2002,03,18,15,53,3.50
2002,03,18,15,54,3.50
2002,03,18,15,55,3.50
2002,03,18,15,56,3.50
2002,03,18,15,57,3.50
2002,03,18,15,58,3.50
2002,03,18,15,59,3.60
2002,03,18,16,00,3.60
2002,03,18,16,01,3.60
2002,03,18,16,02,3.60
2002,03,18,16,03,3.60
2002,03,18,16,04,3.60
2002,03,18,16,05,3.60
2002,03,18,16,06,3.70
2002,03,18,16,07,3.70
2002,03,18,16,08,3.70
2002,03,18,16,09,3.70
2002,03,18,16,10,3.70
2002,03,18,16,11,3.70
2002,03,18,16,12,3.70
2002,03,18,16,13,3.70
2002,03,18,16,14,3.70
2002,03,18,16,15,3.70
2002,03,18,16,16,3.70
2002,03,18,16,17,3.70
2002,03,18,16,18,3.70
2002,03,18,16,19,3.80
2002,03,18,16,20,3.80
2002,03,18,16,21,3.80
2002,03,18,16,22,3.80
2002,03,18,16,23,3.80
2002,03,18,16,24,3.80
2002,03,18,16,25,3.80
2002,03,18,16,26,3.80
2002,03,18,16,27,3.80
2002,03,18,16,28,3.90
2002,03,18,16,29,3.90
2002,03,18,16,30,3.90
2002,03,18,16,31,3.90
2002,03,18,16,32,3.90
2002,03,18,16,33,3.90
2002,03,18,16,34,3.90
2002,03,18,16,35,4.00
2002,03,18,16,36,4.00
2002,03,18,16,37,4.00
2002,03,18,16,38,4.00
2002,03,18,16,39,4.00
2002,03,18,16,40,4.00
2002,03,18,16,41,4.00
2002,03,18,16,42,4.00
2002,03,18,16,43,4.00
2002,03,18,16,44,4.00
2002,03,18,16,45,4.00
2002,03,18,16,46,4.00
2002,03,18,16,47,4.00
2002,03,18,16,48,4.00
2002,03,18,16,49,4.00
2002,03,18,16,50,4.00
2002,03,18,16,51,3.90
2002,03,18,16,52,3.90
2002,03,18,16,53,3.90
2002,03,18,16,54,3.90
2002,03,18,16,55,3.90
2002,03,18,16,56,4.00
2002,03,18,16,57,4.00
2002,03,18,16,58,4.00
2002,03,18,16,59,4.00
2002,03,18,17,00,4.00
2002,03,18,17,01,4.00
2002,03,18,17,02,4.00
2002,03,18,17,03,4.00
2002,03,18,17,04,4.00
2002,03,18,17,05,4.00
2002,03,18,17,06,4.10
2002,03,18,17,07,4.10
2002,03,18,17,08,4.10
2002,03,18,17,09,4.00
2002,03,18,17,10,4.00
2002,03,18,17,11,4.00
2002,03,18,17,12,4.00
2002,03,18,17,13,4.00
2002,03,18,17,14,4.00
2002,03,18,17,15,4.00
2002,03,18,17,16,4.10
2002,03,18,17,17,4.10
2002,03,18,17,18,4.10
2002,03,18,17,19,4.10
2002,03,18,17,20,4.10
2002,03,18,17,21,4.10
2002,03,18,17,22,4.10
2002,03,18,17,23,4.10
2002,03,18,17,24,4.10
2002,03,18,17,25,4.10
2002,03,18,17,26,4.00
2002,03,18,17,27,4.00
2002,03,18,17,28,4.00
2002,03,18,17,29,3.90
2002,03,18,17,30,3.90
2002,03,18,17,31,3.80
2002,03,18,17,32,3.80
2002,03,18,17,33,3.80
2002,03,18,17,34,3.80
2002,03,18,17,35,3.80
2002,03,18,17,36,3.80
2002,03,18,17,37,3.80
2002,03,18,17,38,3.80
2002,03,18,17,39,3.80
2002,03,18,17,40,3.80
2002,03,18,17,41,3.80
2002,03,18,17,42,3.80
2002,03,18,17,43,3.80
2002,03,18,17,44,3.80
2002,03,18,17,45,3.80
2002,03,18,17,46,3.80
2002,03,18,17,47,3.80
2002,03,18,17,48,3.80
2002,03,18,17,49,3.80
2002,03,18,17,50,3.80
2002,03,18,17,51,3.80
2002,03,18,17,52,3.80
2002,03,18,17,53,3.80
2002,03,18,17,54,3.80
2002,03,18,17,55,3.80
2002,03,18,17,56,3.80
2002,03,18,17,57,3.80
2002,03,18,17,58,3.80
2002,03,18,17,59,3.80
2002,03,18,18,00,3.80
2002,03,18,18,01,3.80
2002,03,18,18,02,3.80
2002,03,18,18,03,3.80
2002,03,18,18,04,3.80
2002,03,18,18,05,3.80
2002,03,18,18,06,3.80
2002,03,18,18,07,3.80
2002,03,18,18,08,3.80
2002,03,18,18,09,3.80
2002,03,18,18,10,3.80
2002,03,18,18,11,3.80
2002,03,18,18,12,3.80
2002,03,18,18,13,3.80
2002,03,18,18,14,3.80
2002,03,18,18,15,3.80
2002,03,18,18,16,3.80
2002,03,18,18,17,3.70
2002,03,18,18,18,3.70
2002,03,18,18,19,3.70
2002,03,18,18,20,3.70
2002,03,18,18,21,3.60
2002,03,18,18,22,3.60
2002,03,18,18,23,3.60
2002,03,18,18,24,3.60
2002,03,18,18,25,3.60
2002,03,18,18,26,3.50
2002,03,18,18,27,3.50
2002,03,18,18,28,3.50
2002,03,18,18,29,3.50
2002,03,18,18,30,3.50
2002,03,18,18,31,3.40
2002,03,18,18,32,3.40
2002,03,18,18,33,3.40
2002,03,18,18,34,3.40
2002,03,18,18,35,3.40
2002,03,18,18,36,3.40
2002,03,18,18,37,3.30
2002,03,18,18,38,3.30
2002,03,18,18,39,3.30
2002,03,18,18,40,3.30
2002,03,18,18,41,3.30
2002,03,18,18,42,3.30
2002,03,18,18,43,3.30
2002,03,18,18,44,3.30
2002,03,18,18,45,3.30
2002,03,18,18,46,3.20
2002,03,18,18,47,3.20
2002,03,18,18,48,3.20
2002,03,18,18,49,3.20
2002,03,18,18,50,3.20
2002,03,18,18,51,3.20
2002,03,18,18,52,3.20
2002,03,18,18,53,3.20
2002,03,18,18,54,3.20
2002,03,18,18,55,3.20
2002,03,18,18,56,3.20
2002,03,18,18,57,3.20
2002,03,18,18,58,3.20
2002,03,18,18,59,3.20
2002,03,18,19,00,3.20
2002,03,18,19,01,3.20
2002,03,18,19,02,3.10
2002,03,18,19,03,3.10
2002,03,18,19,04,3.10
2002,03,18,19,05,3.10
2002,03,18,19,06,3.10
2002,03,18,19,07,3.10
2002,03,18,19,08,3.10
2002,03,18,19,09,3.10
2002,03,18,19,10,3.10
2002,03,18,19,11,3.10
2002,03,18,19,12,3.10